Weather Roundup
Issued by NWS

Home | Current Version | Previous Version | Graphics & Text | Print | Product List | Glossary Off
Versions: 1 2 3 4 5 6 7 8 9 10 11 12 13 14 15 16 17 18 19 20 21 22 23 24 25 26 27 28 29 30 31 32 33 34 35 36 37 38 39 40 41 42 43 44 45 46 47 48 49 50

944
NZUS93 KARX 291059
HRRWXR

CURRENT HOURLY OBSERVATIONS ACROSS
MUCH OF THE UPPER MISSISSIPPI VALLEY
NATIONAL WEATHER SERVICE LA CROSSE WI
600 AM CDT WED MAR 29 2017


...SOUTHEAST MINNESOTA...


CITY           SKY/WX    TMP DP  RH WIND       PRES   REMARKS
ROCHESTER      CLOUDY    40  35  83 E10       30.19S WCI  33
ROCHESTER/MAYO FAIR      43  35  72 E6        30.20S
WINONA         CLOUDY    36  36 100 CALM      30.24R
AUSTIN         CLOUDY    41  37  87 E6        30.17S
ALBERT LEA     CLOUDY    43  36  75 E6        30.17S
DODGE CENTER   MOCLDY    39  36  87 E6        30.18F WCI  35
PRESTON        CLOUDY    39  33  80 E6        30.20S WCI  35
OWATONNA       CLOUDY    43  36  75 SE6       30.19R
FARIBAULT      MOCLDY    45  37  76 SE8       30.19R
$$

...ELSEWHERE IN MINNESOTA...


CITY           SKY/WX    TMP DP  RH WIND       PRES   REMARKS
MINNEAPOLIS    CLOUDY    45  32  60 E8        30.20R
INTNL FALLS    PTCLDY    32  24  72 E9        30.27S WCI  24
DULUTH         PTCLDY    32  26  78 E13       30.28R WCI  22
RED WING       CLOUDY    36  30  80 CALM      30.21S
REDWOOD FALLS  MOCLDY    42  33  70 NE3       30.16S
MANKATO        MOCLDY    42  36  79 SE7       30.18S
WORTHINGTON    CLOUDY    38  36  92 NE5       30.14F WCI  34
FAIRMONT       CLOUDY    40  37  89 NE3       30.16S
$$

...SOUTHWEST WISCONSIN...


CITY           SKY/WX    TMP DP  RH WIND       PRES   REMARKS
LA CROSSE      CLOUDY    41  33  73 E7        30.23R
PRAIRIE DU CHI CLOUDY    39  35  86 E5        30.22S
BOSCOBEL       MOCLDY    33  31  92 CALM      30.24R FOG
LONE ROCK      NOT AVBL
PLATTEVILLE    CLOUDY    37  37 100 NE8       30.21S WCI  31
FORT MC COY    MOCLDY    28  27  95 CALM      30.25R
CAMP DOUGLAS   MOCLDY    28  27  93 CALM      30.25R FOG
MAUSTON-NEW LI MOSUNNY   31  30  97 CALM      30.24S
VIROQUA        FAIR      37  33  84 CALM      30.22R
WIS DELLS      CLOUDY    34  32  92 CALM      30.24S
$$

...ELSEWHERE IN WISCONSIN...


CITY           SKY/WX    TMP DP  RH WIND       PRES   REMARKS
MILWAUKEE      FOG       33  30  88 N5        30.26R VSB 1/4 WCI  29
MADISON        FOG       31  30  96 CALM      30.25R VSB 1/4
GREEN BAY      CLOUDY    34  32  92 NE9       30.30R WCI  27
EAU CLAIRE     NOT AVBL
BLACK RVR FLS  FAIR      29  29 100 CALM      30.24S
MEDFORD        CLOUDY    30  27  88 E6        30.25S WCI  24
WAUSAU         CLOUDY    30  28  92 CALM      30.27R
WIS RAPIDS     CLOUDY    34  30  85 E3        30.28R
MARSHFIELD     CLOUDY    35  28  75 E6        30.25R WCI  30
RICE LAKE      MOCLDY    30  29  96 CALM      30.25R
$$

...NORTHEAST IOWA...


CITY           SKY/WX    TMP DP  RH WIND       PRES   REMARKS
WATERLOO       CLOUDY    41  37  86 E13       30.14F
DUBUQUE        MOCLDY    38  36  92 NE6       30.19S WCI  33
DECORAH        MOCLDY    41  37  87 E12       30.18S
MASON CITY     CLOUDY    41  38  89 E6        30.16S
CHARLES CITY   CLOUDY    43  39  87 E10       30.16F
OELWEIN        CLOUDY    39  39 100 E16       30.16F WCI  30
$$

...ELSEWHERE IN IOWA...


CITY           SKY/WX    TMP DP  RH WIND       PRES   REMARKS
DES MOINES     CLOUDY    45  40  82 E7        30.10S
IOWA CITY      CLOUDY    42  38  85 E10       30.16F
FORT DODGE     CLOUDY    43  37  81 E3        30.16R
MARSHALLTOWN   CLOUDY    42  40  92 E7        30.13R
CEDAR RAPIDS   CLOUDY    39  39 100 E14       30.13F FOG     WCI  31
$$

...NORTHERN ILLINOIS...


CITY           SKY/WX    TMP DP  RH WIND       PRES   REMARKS
CHICAGO-OHARE  FOG       35  33  92 NE8       30.23R VSB 3/4 WCI  29
CHICAGO-MIDWAY CLOUDY    37  36  96 NE9       30.23R FOG     WCI  30
MOLINE         CLOUDY    44  40  85 E14       30.14F
ROCKFORD       FOG       36  35  96 E7        30.24R VSB 1   WCI  30
PEORIA         CLOUDY    44  43  96 E12       30.14S FOG
$$

NOTE: "FAIR" INDICATES FEW OR NO CLOUDS BELOW 12,000 FEET WITH NO
SIGNIFICANT WEATHER AND/OR OBSTRUCTIONS TO VISIBILITY. WIND
SPEEDS ARE IN MILES-PER-HOUR.




USA.gov is the U.S. government's official web portal to all federal, state and local government web resources and services.